DW4721 Fema DK current weather conditions

sailwx.info

Wind from 014 at 0 knots gusting 9

Air temperature 14.4° C
Dewpoint 9.7° C

Last reported at 2019-Sep-19 16:00 UTC.
Time now 2019-Sep-19 16:49 UTC

Location: N 54°59' E 011°32'.
View on Google Maps.

See reports from other nearby stations

  
Tides and Currents Weather Stations Pressure Air Temp Water Temp Dewpoint Dewpoint Depression Visibility Wind Speed Wind Dir Waves Ship Positions
date/time (UTC)wind fromknots sea level pressurealtimeterstation pressurevisibilityair tempwater tempwave heightnotes
2019-Sep-19 16:00 014 0 gusting 9 14.4
2019-Sep-19 15:46 357 4 gusting 10 14.4
2019-Sep-19 15:30 007 4 gusting 10 13.9
2019-Sep-19 15:16 007 6 gusting 10 14.4
2019-Sep-19 15:01 013 5 gusting 10 14.4
2019-Sep-19 14:46 038 5 gusting 9 14.4
2019-Sep-19 14:30 338 5 gusting 9 14.4
2019-Sep-19 14:16 260 5 gusting 9 14.4
2019-Sep-19 14:00 040 3 gusting 9 14.4
2019-Sep-19 13:45 343 4 gusting 9 14.4
2019-Sep-19 13:30 354 6 gusting 9 13.9
2019-Sep-19 13:15 359 5 gusting 9 14.4
2019-Sep-19 13:00 338 4 gusting 10 14.4
2019-Sep-19 12:45 017 6 gusting 10 14.4
2019-Sep-19 12:31 322 5 gusting 10 14.4
2019-Sep-19 12:15 320 2 gusting 9 14.4
2019-Sep-19 12:00 315 4 gusting 11 13.9
2019-Sep-19 11:45 333 6 gusting 10 13.9
2019-Sep-19 11:30 315 5 gusting 12 13.9
2019-Sep-19 11:15 260 6 gusting 11 13.9
2019-Sep-19 11:00 315 6 gusting 11 13.9
2019-Sep-19 10:45 011 5 gusting 11 13.9
2019-Sep-19 10:30 260 6 gusting 12 13.3
2019-Sep-19 10:17 300 5 gusting 12 13.3
2019-Sep-19 10:02 314 5 gusting 11 13.3
2019-Sep-19 09:47 001 6 gusting 11 12.8
2019-Sep-19 09:32 347 5 gusting 12 12.8
2019-Sep-19 09:16 313 6 gusting 10 12.8
2019-Sep-19 09:01 323 4 gusting 9 12.2
2019-Sep-19 08:46 323 5 gusting 10 12.2
2019-Sep-19 08:31 344 5 gusting 10 12.2
2019-Sep-19 08:17 299 4 gusting 10 12.2
2019-Sep-19 08:00 342 4 gusting 10 11.7
2019-Sep-19 07:45 341 6 gusting 12 11.7
2019-Sep-19 07:30 306 5 gusting 10 11.7
2019-Sep-19 07:15 325 4 gusting 10 11.1
2019-Sep-19 07:00 319 5 gusting 9 11.1
2019-Sep-19 06:45 309 4 gusting 10 11.1
2019-Sep-19 06:30 311 4 gusting 8 11.1
2019-Sep-19 06:15 314 4 gusting 7 11.1
2019-Sep-19 06:00 319 4 gusting 7 11.1
2019-Sep-19 05:45 310 2 gusting 7 11.1
2019-Sep-19 05:30 335 11.1
2019-Sep-19 05:15 334 1 gusting 7 10.6
2019-Sep-19 05:00 325 2 gusting 9 10.6
2019-Sep-19 04:45 334 3 gusting 8 10.6
2019-Sep-19 04:30 319 4 gusting 9 10.6
2019-Sep-19 04:18 332 3 gusting 7 10.6
2019-Sep-19 04:02 330 10.6
2019-Sep-19 03:46 332 3 gusting 8 10.6
2019-Sep-19 03:31 328 2 gusting 7 11.1
2019-Sep-19 03:17 314 3 gusting 7 11.1
2019-Sep-19 03:02 327 2 gusting 7 11.1
2019-Sep-19 02:46 336 5 gusting 8 11.1
2019-Sep-19 02:31 334 3 gusting 8 11.1
2019-Sep-19 02:17 345 5 gusting 9 11.1
2019-Sep-19 02:02 324 6 gusting 10 11.1
2019-Sep-19 01:46 327 6 gusting 11 11.1
2019-Sep-19 01:31 336 6 gusting 9 11.1
2019-Sep-19 01:17 317 4 gusting 11 11.1
2019-Sep-19 01:01 323 5 gusting 12 11.1
2019-Sep-19 00:46 315 6 gusting 10 11.1
2019-Sep-19 00:31 327 5 gusting 9 11.1
2019-Sep-19 00:15 319 6 gusting 10 11.1
2019-Sep-19 00:01 332 6 gusting 11 11.1
2019-Sep-18 23:46 325 6 gusting 11 11.1
2019-Sep-18 23:30 339 6 gusting 11 11.1
2019-Sep-18 23:16 334 6 gusting 11 11.1
2019-Sep-18 23:01 352 6 gusting 11 11.1
2019-Sep-18 22:46 041 6 gusting 13 11.1
2019-Sep-18 22:30 008 6 gusting 13 11.7
2019-Sep-18 22:16 032 7 gusting 11 11.7
2019-Sep-18 22:00 330 7 gusting 13 11.7
2019-Sep-18 21:45 355 8 gusting 13 11.7
2019-Sep-18 21:30 327 7 gusting 13 11.7
2019-Sep-18 21:15 327 10 gusting 17 11.7
2019-Sep-18 21:00 330 8 gusting 13 11.7
2019-Sep-18 20:45 342 9 gusting 17 11.7
2019-Sep-18 20:30 321 7 gusting 16 11.7
2019-Sep-18 20:15 304 9 gusting 17 11.7
2019-Sep-18 20:00 315 9 gusting 15 11.7
2019-Sep-18 19:30 319 8 gusting 13 11.7
2019-Sep-18 19:15 302 7 gusting 13 12.2
2019-Sep-18 19:00 338 8 gusting 16 12.2
2019-Sep-18 18:47 324 6 gusting 16 12.2
2019-Sep-18 18:31 325 9 gusting 16 12.2
2019-Sep-18 18:17 311 10 gusting 21 11.7
2019-Sep-18 18:01 329 9 gusting 18 11.7
2019-Sep-18 17:46 319 6 gusting 13 10.6
2019-Sep-18 17:32 056 6 gusting 16 10.0
2019-Sep-18 17:16 260 4 gusting 17 10.6
2019-Sep-18 17:02 321 11 gusting 17 11.7
2019-Sep-18 16:47 313 6 gusting 13 11.1
2019-Sep-18 16:31 313 7 gusting 16 11.1
2019-Sep-18 16:17 353 13 gusting 18 12.2
2019-Sep-18 16:02 306 8 gusting 13 12.8
2019-Sep-18 15:46 319 7 gusting 13 13.3
2019-Sep-18 15:31 351 8 gusting 15 13.9
2019-Sep-18 15:16 023 9 gusting 16 13.3
2019-Sep-18 15:01 039 9 gusting 15 13.3
2019-Sep-18 14:46 358 10 gusting 16 13.9
2019-Sep-18 14:31 346 10 gusting 16 13.9
2019-Sep-18 14:16 357 10 gusting 19 13.3
2019-Sep-18 14:01 336 9 gusting 16 13.9
2019-Sep-18 13:46 321 10 gusting 19 13.9
2019-Sep-18 13:32 011 11 gusting 17 14.4
2019-Sep-18 13:16 022 9 gusting 17 14.4
2019-Sep-18 13:01 357 8 gusting 17 13.9
2019-Sep-18 12:46 353 10 gusting 16 13.3
2019-Sep-18 12:32 028 11 gusting 15 13.3
2019-Sep-18 12:15 029 10 gusting 17 13.3
2019-Sep-18 12:01 348 9 gusting 16 13.9
2019-Sep-18 11:45 308 9 gusting 16 13.3
2019-Sep-18 11:31 344 11 gusting 19 13.9
2019-Sep-18 11:16 019 11 gusting 18 13.3
2019-Sep-18 11:01 339 12 gusting 18 13.3
2019-Sep-18 10:45 320 10 gusting 18 13.3
2019-Sep-18 10:30 317 10 gusting 18 13.3
2019-Sep-18 10:15 356 12 gusting 19 12.8
2019-Sep-18 10:00 327 11 gusting 19 12.8
2019-Sep-18 09:45 339 10 gusting 20 12.8
2019-Sep-18 09:31 356 12 gusting 19 12.8
2019-Sep-18 09:16 331 12 gusting 19 12.2
2019-Sep-18 09:00 323 12 gusting 20 12.2
2019-Sep-18 08:47 323 11 gusting 21 11.7
2019-Sep-18 08:34 327 11 gusting 21 11.7
2019-Sep-18 08:17 324 13 gusting 21 11.7
2019-Sep-18 08:01 339 12 gusting 21 11.7
2019-Sep-18 07:46 343 13 gusting 19 11.7
2019-Sep-18 07:32 333 13 gusting 20 11.7
2019-Sep-18 07:17 325 13 gusting 19 11.1
2019-Sep-18 07:02 314 13 gusting 19 11.1
2019-Sep-18 06:46 352 9 gusting 23 11.1
2019-Sep-18 06:31 297 10 gusting 19 11.1
2019-Sep-18 06:16 309 11 gusting 20 11.1
2019-Sep-18 06:01 304 11 gusting 20 11.1
2019-Sep-18 05:46 357 13 gusting 19 11.1
2019-Sep-18 05:31 349 12 gusting 19 11.1
2019-Sep-18 05:16 335 10 gusting 19 10.6
2019-Sep-18 05:01 312 10 gusting 17 10.6
2019-Sep-18 04:45 330 10 gusting 17 10.6
2019-Sep-18 04:30 351 10 gusting 19 10.6
2019-Sep-18 04:15 304 9 gusting 15 11.1
2019-Sep-18 04:01 310 10 gusting 17 11.1
2019-Sep-18 03:45 338 11 gusting 18 11.1
2019-Sep-18 03:30 311 13 gusting 19 11.1
2019-Sep-18 03:15 326 10 gusting 19 11.1
2019-Sep-18 03:00 313 11 gusting 20 11.1
2019-Sep-18 02:45 325 12 gusting 19 11.1
2019-Sep-18 02:30 343 11 gusting 19 11.1
2019-Sep-18 02:15 310 9 gusting 19 11.1
2019-Sep-18 02:00 326 11 gusting 19 11.1
2019-Sep-18 01:31 324 11 gusting 19 11.1
2019-Sep-18 01:16 311 9 gusting 20 11.1
2019-Sep-18 01:02 325 11 gusting 20 11.1
2019-Sep-18 00:47 302 13 gusting 19 11.1
2019-Sep-18 00:31 354 13 gusting 17 11.1
2019-Sep-18 00:16 325 9 gusting 18 11.1
2019-Sep-18 00:02 319 9 gusting 17 11.1
2019-Sep-17 23:46 322 8 gusting 16 11.1
2019-Sep-17 23:32 313 10 gusting 18 11.1
2019-Sep-17 23:16 325 8 gusting 16 11.1
2019-Sep-17 23:01 340 12 gusting 18 11.1
2019-Sep-17 22:45 348 12 gusting 19 11.1
2019-Sep-17 22:30 333 11 gusting 21 11.7
2019-Sep-17 22:16 359 13 gusting 21 11.7
2019-Sep-17 22:00 350 11 gusting 19 11.7
2019-Sep-17 21:46 354 12 gusting 20 11.7
2019-Sep-17 21:30 343 11 gusting 22 11.7
2019-Sep-17 21:15 338 13 gusting 20 11.7
2019-Sep-17 21:00 325 13 gusting 19 11.7
2019-Sep-17 20:46 329 14 gusting 22 11.7
2019-Sep-17 20:30 324 13 gusting 21 11.7
2019-Sep-17 20:15 004 13 gusting 22 11.7
2019-Sep-17 20:00 306 13 gusting 22 11.7
2019-Sep-17 19:45 331 12 gusting 22 11.1
2019-Sep-17 19:30 316 13 gusting 22 11.7
2019-Sep-17 19:15 338 14 gusting 22 11.7
2019-Sep-17 19:00 334 15 gusting 23 11.7
2019-Sep-17 18:45 339 13 gusting 22 11.7
2019-Sep-17 18:30 344 14 gusting 25 11.7
2019-Sep-17 18:15 311 18 gusting 23 11.1
2019-Sep-17 18:00 303 12 gusting 21 10.6
2019-Sep-17 17:45 334 18 gusting 25 11.1
2019-Sep-17 17:30 331 19 gusting 28 11.1
2019-Sep-17 17:15 316 18 gusting 32 10.6
2019-Sep-17 17:00 338 14 gusting 26 11.1
2019-Sep-17 16:45 013 17 gusting 26 11.1
2019-Sep-17 16:30 336 16 gusting 26 10.0
2019-Sep-17 16:15 012 14 gusting 26 9.4
2019-Sep-17 16:00 316 14 gusting 31 11.1